EW2875 Weather Reports


Display with metric or nautical units.
time (UTC)temp
F
wind
direction
speed
MPH
gust
MPH
rain 1hr
in
rain 24hr
in
rain mn
in
humidity
%
barometer
mb
20260902000005 51 277 4.0 11.0 0.01 0.13 0.01 93 1011.1
20260901234505 52 290 7.0 20.0 0.01 0.13 0.01 89 1011.1
20260901233005 52 284 11.0 20.0 0.00 0.12 0.00 85 1011.0
20260901231505 52 272 5.0 21.0 0.00 0.12 0.00 83 1010.9
20260901230027 52 264 5.0 16.0 0.00 0.12 0.00 83 1010.7
20260901224526 52 252 7.0 16.0 0.00 0.12 0.12 83 1010.6
20260901223006 52 244 9.0 15.0 0.00 0.12 0.12 83 1010.4
20260901221505 52 244 11.0 19.0 0.00 0.12 0.12 82 1010.2
20260901220005 52 242 11.0 19.0 0.00 0.12 0.12 82 1010.0
20260901214505 52 237 9.0 15.0 0.00 0.12 0.12 82 1010.0
20260901213005 52 235 9.0 18.0 0.00 0.12 0.12 82 1010.0
20260901211526 52 238 10.0 18.0 0.00 0.12 0.12 81 1010.0
20260901210005 52 236 10.0 18.0 0.00 0.12 0.12 80 1009.9
20260901204505 53 238 10.0 20.0 0.00 0.12 0.12 80 1009.8
20260901203005 53 235 7.0 13.0 0.00 0.12 0.12 80 1009.9
20260901201526 53 235 6.0 12.0 0.00 0.12 0.12 79 1009.9
20260901200005 53 232 6.0 14.0 0.00 0.12 0.12 79 1009.9
20260901194526 53 242 6.0 12.0 0.00 0.12 0.12 78 1009.8
20260901193005 53 252 7.0 15.0 0.00 0.12 0.12 79 1009.5
20260901191505 53 254 4.0 11.0 0.00 0.12 0.12 77 1009.3
20260901190026 54 252 4.0 10.0 0.00 0.12 0.12 77 1009.2
20260901184526 54 260 3.0 10.0 0.00 0.12 0.12 75 1009.0
20260901183005 55 260 4.0 12.0 0.00 0.12 0.12 76 1008.9
20260901181505 57 272 2.0 9.0 0.00 0.12 0.12 73 1008.8
20260901180005 58 273 3.0 13.0 0.00 0.12 0.12 72 1008.8
20260901174505 59 282 3.0 10.0 0.00 0.12 0.12 72 1008.7
20260901173005 58 285 6.0 13.0 0.00 0.12 0.12 73 1008.7
20260901171505 58 284 5.0 20.0 0.00 0.12 0.12 70 1008.6
20260901170005 58 283 7.0 22.0 0.00 0.12 0.12 71 1008.6
20260901164505 59 288 4.0 19.0 0.00 0.12 0.12 72 1008.4
20260901163005 61 296 10.0 19.0 0.00 0.13 0.12 71 1008.3
20260901161505 61 291 11.0 22.0 0.00 0.13 0.12 72 1008.0
20260901160005 61 279 8.0 26.0 0.00 0.13 0.12 70 1007.8
20260901154505 61 284 6.0 16.0 0.00 0.13 0.12 71 1007.8
20260901153004 61 288 6.0 18.0 0.00 0.13 0.12 72 1007.6
20260901151504 61 287 12.0 25.0 0.00 0.13 0.12 73 1007.5
20260901150004 60 284 10.0 24.0 0.00 0.13 0.12 75 1007.4
20260901144505 61 290 9.0 26.0 0.00 0.13 0.12 83 1007.2
20260901143004 59 293 11.0 21.0 0.00 0.13 0.12 87 1007.3
20260901141505 59 303 8.0 16.0 0.00 0.13 0.12 87 1007.2
20260901140005 59 302 14.0 24.0 0.00 0.13 0.12 88 1007.2
20260901134505 59 296 13.0 26.0 0.00 0.13 0.12 91 1007.0
20260901133005 58 295 13.0 23.0 0.00 0.13 0.12 93 1007.0
20260901131526 57 294 13.0 24.0 0.00 0.13 0.12 92 1007.0
20260901130005 58 295 10.0 19.0 0.01 0.13 0.12 94 1006.8
20260901124505 57 293 12.0 20.0 0.11 0.13 0.12 95 1006.4
20260901123004 57 296 14.0 30.0 0.11 0.13 0.12 94 1006.3
20260901121504 58 288 15.0 27.0 0.11 0.13 0.12 93 1005.8
20260901120004 59 250 6.0 23.0 0.10 0.12 0.11 91 1005.4
20260901114504 64 230 15.0 27.0 0.00 0.02 0.01 82 1004.7
20260901113025 64 227 18.0 33.0 0.00 0.02 0.01 80 1004.5
20260901111527 64 219 17.0 27.0 0.00 0.02 0.01 82 1004.5
20260901110004 63 204 14.0 29.0 0.00 0.02 0.01 87 1004.7
20260901104525 60 190 15.0 23.0 0.00 0.02 0.01 90 1004.7
20260901103004 59 180 14.0 22.0 0.00 0.02 0.01 91 1004.5
20260901101504 58 178 13.0 20.0 0.00 0.02 0.01 92 1004.5
20260901100004 58 179 17.0 25.0 0.00 0.02 0.01 90 1004.6
20260901094504 58 175 18.0 25.0 0.00 0.02 0.01 91 1004.8
20260901093004 56 176 18.0 25.0 0.00 0.02 0.01 92 1004.9
20260901091504 56 180 18.0 29.0 0.00 0.02 0.01 91 1005.1
20260901090004 56 181 18.0 26.0 0.00 0.02 0.01 91 1005.2
20260901084525 55 176 14.0 22.0 0.00 0.02 0.01 92 1005.5
20260901083004 55 178 15.0 22.0 0.00 0.02 0.01 93 1005.5
20260901081504 55 182 16.0 24.0 0.01 0.02 0.01 93 1006.0
20260901080004 54 182 16.0 25.0 0.01 0.02 0.01 93 1006.1
20260901074504 54 178 17.0 25.0 0.01 0.02 0.01 93 1006.1
20260901073004 54 171 11.0 19.0 0.01 0.02 0.01 93 1006.3
20260901071504 54 172 9.0 14.0 0.00 0.01 0.00 93 1006.6
20260901070025 54 175 13.0 19.0 0.00 0.01 0.00 92 1006.8
20260901064504 54 172 13.0 18.0 0.00 0.01 0.00 90 1006.8
20260901063004 54 170 15.0 20.0 0.00 0.01 0.00 92 1006.9
20260901061504 53 167 12.0 18.0 0.00 0.01 0.00 94 1007.0
20260901060004 52 161 13.0 18.0 0.00 0.01 0.00 95 1007.4
20260901054504 50 151 8.0 10.0 0.00 0.01 0.00 95 1007.7
20260901053004 49 154 10.0 12.0 0.00 0.01 0.00 93 1007.8
20260901051504 50 171 9.0 12.0 0.00 0.01 0.00 92 1007.9
20260901050004 51 176 12.0 18.0 0.00 0.01 0.00 92 1008.2
20260901044506 51 182 13.0 16.0 0.00 0.01 0.00 90 1008.3
20260901043004 52 181 13.0 18.0 0.00 0.01 0.00 90 1008.5
20260901041525 51 178 12.0 15.0 0.00 0.01 0.00 91 1008.4
20260901040004 52 179 14.0 19.0 0.00 0.01 0.00 90 1008.6
20260901034504 51 175 14.0 21.0 0.00 0.01 0.00 90 1008.7
20260901033004 51 175 14.0 16.0 0.00 0.01 0.00 90 1008.9
20260901031504 52 178 13.0 18.0 0.00 0.01 0.00 90 1009.0
20260901030004 52 180 13.0 16.0 0.00 0.01 0.00 90 1009.1
20260901024504 52 180 11.0 14.0 0.00 0.01 0.00 90 1009.3
20260901023004 52 181 11.0 15.0 0.00 0.01 0.00 91 1009.4
20260901021504 52 180 14.0 18.0 0.00 0.01 0.00 91 1009.4
20260901014504 52 192 10.0 14.0 0.00 0.01 0.00 90 1009.8
20260901013004 53 204 11.0 19.0 0.00 0.01 0.00 89 1009.8
20260901011504 52 209 12.0 19.0 0.00 0.01 0.00 90 1009.8
20260901010004 52 209 11.0 19.0 0.00 0.01 0.00 91 1009.8
20260901004504 52 206 13.0 20.0 0.00 0.01 0.00 91 1009.9
20260901003004 52 209 12.0 18.0 0.00 0.01 0.00 91 1010.1
20260901001504 51 212 12.0 19.0 0.00 0.01 0.00 92 1010.1